GW7423 Weather Reports


time (UTC)temp
C
wind
direction
speed
KPH
gust
KPH
rain 1hr
cm
rain 24hr
cm
rain mn
cm
humidity
%
barometer
mb
20260903073737 25 180 4.8 12.9 0.03 0.10 0.08 78 1003.8
20260903073237 25 207 8.0 12.9 0.03 0.10 0.08 78 1004.2
20260903072738 25 209 4.8 11.3 0.03 0.10 0.08 78 1004.2
20260903072237 25 193 8.0 11.3 0.03 0.10 0.08 77 1004.2
20260903071738 25 225 4.8 11.3 0.03 0.10 0.08 77 1003.8
20260903071238 25 180 4.8 14.5 0.03 0.10 0.08 77 1003.8
20260903070737 26 252 1.6 14.5 0.03 0.10 0.08 76 1004.2
20260903070237 26 177 9.7 14.5 0.03 0.10 0.08 76 1003.8
20260903065738 26 196 3.2 11.3 0.03 0.10 0.05 76 1003.8
20260903065237 26 204 4.8 16.1 0.03 0.10 0.05 76 1004.2
20260903064737 26 177 8.0 16.1 0.03 0.10 0.05 75 1003.8
20260903064237 26 199 11.3 11.3 0.00 0.10 0.05 75 1004.2
20260903063737 26 188 8.0 12.9 0.00 0.10 0.05 75 1004.2
20260903063237 26 187 4.8 12.9 0.00 0.10 0.05 76 1003.8
20260903062737 26 174 6.4 11.3 0.00 0.10 0.05 76 1004.2
20260903062237 26 207 4.8 12.9 0.00 0.10 0.05 76 1004.2
20260903061737 26 187 6.4 12.9 0.00 0.10 0.05 76 1004.5
20260903061237 26 159 6.4 14.5 0.00 0.10 0.05 76 1004.2
20260903060737 26 179 8.0 14.5 0.00 0.10 0.05 76 1004.5
20260903060238 26 208 8.0 12.9 0.03 0.10 0.05 76 1004.2
20260903055738 26 191 4.8 8.0 0.03 0.10 0.05 75 1004.2
20260903055237 26 174 4.8 8.0 0.03 0.10 0.05 75 1004.5
20260903054738 26 200 4.8 8.0 0.03 0.10 0.05 75 1004.5
20260903054236 26 205 3.2 11.3 0.03 0.10 0.05 76 1004.2
20260903053737 26 29 0.0 11.3 0.03 0.10 0.05 76 1004.2
20260903053237 26 183 4.8 11.3 0.03 0.10 0.05 77 1004.2
20260903052737 26 190 9.7 9.7 0.03 0.10 0.05 76 1004.2
20260903052236 26 197 4.8 8.0 0.03 0.10 0.05 76 1004.5
20260903051738 26 204 6.4 8.0 0.03 0.10 0.05 76 1004.5
20260903051237 26 188 3.2 11.3 0.03 0.10 0.03 76 1004.2
20260903050738 26 188 6.4 11.3 0.03 0.10 0.03 76 1004.5
20260903050238 26 251 3.2 11.3 0.00 0.08 0.03 76 1004.2
20260903045737 26 185 3.2 11.3 0.00 0.08 0.00 76 1004.2
20260903045237 26 197 6.4 9.7 0.00 0.08 0.00 75 1004.2
20260903044737 26 198 3.2 8.0 0.00 0.08 0.00 75 1004.2
20260903044238 26 251 3.2 9.7 0.00 0.08 0.00 76 1004.2
20260903043737 26 176 4.8 9.7 0.00 0.08 0.00 76 1004.2
20260903043237 26 200 6.4 9.7 0.00 0.08 0.00 76 1004.2
20260903042738 26 206 4.8 9.7 0.00 0.08 0.00 77 1004.2
20260903042237 26 190 4.8 9.7 0.00 0.08 0.00 76 1004.5
20260903041738 26 120 0.0 9.7 0.00 0.08 0.00 75 1004.2
20260903041238 27 226 4.8 12.9 0.00 0.08 0.00 74 1004.5
20260903040737 27 190 8.0 12.9 0.00 0.08 0.00 73 1004.2
20260903040237 27 181 6.4 12.9 0.00 0.08 0.00 72 1004.5
20260903035738 27 191 8.0 9.7 0.00 0.08 0.00 73 1004.5
20260903035237 27 198 4.8 11.3 0.00 0.08 0.00 75 1004.5
20260903034737 27 223 3.2 11.3 0.00 0.08 0.00 75 1004.2
20260903034238 27 194 8.0 11.3 0.00 0.08 0.00 76 1004.5
20260903033737 27 185 6.4 9.7 0.00 0.08 0.00 75 1004.5
20260903033238 27 193 8.0 9.7 0.00 0.08 0.00 75 1004.5
20260903032737 27 185 4.8 6.4 0.00 0.08 0.00 76 1004.2
20260903032237 27 121 1.6 9.7 0.00 0.08 0.00 76 1004.5
20260903031737 27 179 6.4 9.7 0.00 0.08 0.00 75 1004.5
20260903031237 27 195 8.0 9.7 0.00 0.08 0.00 74 1004.5
20260903030737 27 184 4.8 8.0 0.00 0.08 0.00 72 1004.5
20260903030238 28 201 3.2 8.0 0.00 0.08 0.00 73 1004.5
20260903025737 28 191 4.8 8.0 0.00 0.08 0.00 73 1004.2
20260903025238 28 269 0.0 8.0 0.00 0.08 0.00 73 1004.5
20260903024737 28 238 1.6 9.7 0.00 0.08 0.00 72 1004.5
20260903024237 28 184 4.8 9.7 0.00 0.08 0.00 71 1004.5
20260903023738 28 176 3.2 8.0 0.00 0.08 0.00 70 1004.5
20260903023238 29 234 1.6 6.4 0.00 0.08 0.00 67 1004.5
20260903022737 29 212 4.8 8.0 0.00 0.08 0.00 66 1004.5
20260903022238 29 234 3.2 8.0 0.00 0.08 0.00 66 1004.5
20260903021738 29 203 4.8 8.0 0.00 0.08 0.00 66 1004.2
20260903021237 29 195 3.2 6.4 0.00 0.08 0.00 65 1004.9
20260903020737 29 242 0.0 6.4 0.00 0.08 0.00 64 1004.2
20260903020239 29 154 0.0 9.7 0.00 0.08 0.00 64 1004.5
20260903015737 29 233 1.6 11.3 0.00 0.08 0.00 63 1004.5
20260903015238 30 192 9.7 11.3 0.00 0.08 0.00 62 1004.5
20260903014737 30 157 0.0 4.8 0.00 0.08 0.00 58 1004.2
20260903014237 30 205 3.2 6.4 0.00 0.08 0.00 57 1004.2
20260903013740 30 269 0.0 6.4 0.00 0.08 0.00 55 1004.5
20260903013238 31 215 4.8 6.4 0.00 0.08 0.00 55 1004.2
20260903012737 31 223 3.2 6.4 0.00 0.08 0.00 55 1004.2
20260903012237 31 217 4.8 6.4 0.00 0.08 0.00 54 1004.2
20260903011738 31 231 4.8 6.4 0.00 0.08 0.00 54 1004.2
20260903011239 31 217 4.8 6.4 0.00 0.08 0.00 54 1004.2
20260903010738 31 213 4.8 6.4 0.00 0.08 0.00 55 1004.2
20260903010237 31 238 1.6 4.8 0.00 0.08 0.00 57 1004.2
20260903005737 31 223 3.2 6.4 0.00 0.08 0.00 57 1004.2
20260903005237 31 205 4.8 6.4 0.00 0.08 0.00 57 1003.8
20260903004737 31 204 3.2 6.4 0.00 0.08 0.00 57 1003.8
20260903004237 31 187 3.2 4.8 0.00 0.08 0.00 56 1003.5
20260903003738 31 193 0.0 3.2 0.00 0.08 0.00 55 1003.8
20260903003237 31 224 0.0 3.2 0.00 0.08 0.00 54 1003.8
20260903002737 31 243 1.6 3.2 0.00 0.08 0.00 53 1003.8
20260903002238 31 76 0.0 6.4 0.00 0.08 0.00 53 1003.5
20260903001737 31 91 0.0 6.4 0.00 0.08 0.00 53 1003.8
20260903001237 31 212 3.2 4.8 0.00 0.08 0.00 53 1003.8
20260903000737 32 226 1.6 3.2 0.00 0.08 0.00 54 1003.8
20260903000237 32 245 1.6 4.8 0.00 0.08 0.00 49 1003.8
20260902235737 32 253 3.2 4.8 0.00 0.08 0.08 50 1003.8
20260902235237 33 352 1.6 4.8 0.00 0.08 0.08 48 1003.5
20260902234737 33 237 0.0 4.8 0.00 0.08 0.08 49 1003.8
20260902234238 33 241 0.0 4.8 0.00 0.08 0.08 48 1003.5
20260902233737 33 243 3.2 4.8 0.00 0.08 0.08 47 1004.2
20260902233237 33 241 1.6 4.8 0.00 0.08 0.08 47 1003.8
20260902232737 33 256 3.2 4.8 0.00 0.08 0.08 48 1003.8
20260902232237 33 259 3.2 4.8 0.00 0.08 0.08 48 1004.2
20260902231737 33 336 1.6 4.8 0.00 0.08 0.08 45 1003.8
20260902231237 33 319 3.2 6.4 0.00 0.08 0.08 46 1003.8
20260902230737 34 329 1.6 6.4 0.00 0.08 0.08 45 1004.2
20260902230238 34 245 0.0 4.8 0.00 0.08 0.08 45 1004.2
20260902225738 33 248 3.2 8.0 0.00 0.08 0.08 44 1004.2
20260902225237 33 261 6.4 8.0 0.00 0.08 0.08 43 1003.8
20260902224737 34 255 4.8 8.0 0.00 0.08 0.08 43 1003.8
20260902224237 33 266 6.4 8.0 0.00 0.08 0.08 43 1004.2
20260902223737 34 263 8.0 9.7 0.00 0.08 0.08 44 1004.2
20260902223237 34 304 3.2 9.7 0.00 0.08 0.08 43 1004.2
20260902222738 34 260 4.8 9.7 0.00 0.08 0.08 43 1004.5
20260902222238 34 254 4.8 9.7 0.00 0.08 0.08 43 1003.8
20260902221737 35 232 4.8 9.7 0.00 0.08 0.08 43 1004.2
20260902221237 35 266 3.2 9.7 0.00 0.08 0.08 42 1004.2
20260902220738 35 265 3.2 9.7 0.00 0.08 0.08 42 1003.8
20260902220237 35 298 8.0 11.3 0.00 0.08 0.08 42 1004.2
20260902215738 34 266 4.8 11.3 0.00 0.08 0.08 44 1004.5
20260902215238 35 262 3.2 12.9 0.00 0.08 0.08 44 1004.2
20260902214738 35 269 6.4 12.9 0.00 0.08 0.08 42 1004.2
20260902214237 34 275 3.2 11.3 0.00 0.08 0.08 45 1004.2
20260902213737 35 251 6.4 8.0 0.00 0.08 0.08 45 1004.2
20260902213238 35 246 1.6 11.3 0.00 0.08 0.08 44 1004.2
20260902212739 34 252 6.4 12.9 0.00 0.08 0.08 46 1004.2
20260902212239 33 246 8.0 12.9 0.00 0.08 0.08 46 1004.2
20260902211738 35 275 9.7 12.9 0.00 0.08 0.08 44 1004.2
20260902211238 34 277 8.0 16.1 0.00 0.08 0.08 45 1004.5
20260902210737 33 266 11.3 17.7 0.00 0.08 0.08 45 1004.5
20260902210238 34 283 8.0 17.7 0.00 0.08 0.08 44 1004.5
20260902205737 34 252 12.9 16.1 0.00 0.08 0.08 45 1004.5
20260902205238 34 234 9.7 14.5 0.00 0.08 0.08 44 1004.5
20260902204739 34 253 6.4 11.3 0.00 0.08 0.08 44 1004.5
20260902204238 35 246 9.7 11.3 0.00 0.08 0.08 42 1004.5
20260902203737 34 233 3.2 16.1 0.00 0.08 0.08 42 1004.5
20260902203238 33 280 6.4 16.1 0.00 0.08 0.08 45 1004.5
20260902202738 34 242 11.3 16.1 0.00 0.08 0.08 44 1004.5
20260902202238 35 251 8.0 9.7 0.00 0.08 0.08 43 1004.5
20260902201739 34 296 3.2 14.5 0.00 0.08 0.08 44 1004.5
20260902201238 33 313 8.0 14.5 0.00 0.08 0.08 46 1004.5
20260902200738 33 307 4.8 17.7 0.00 0.08 0.08 45 1004.9
20260902200237 33 293 6.4 19.3 0.00 0.08 0.08 45 1004.9
20260902195736 33 239 11.3 19.3 0.00 0.08 0.08 46 1004.5
20260902195237 33 229 4.8 16.1 0.00 0.08 0.08 43 1004.5
20260902194739 33 256 11.3 16.1 0.00 0.08 0.08 45 1004.9
20260902194237 34 243 9.7 11.3 0.00 0.08 0.08 43 1004.9
20260902193738 34 257 6.4 14.5 0.00 0.08 0.08 44 1005.2
20260902193237 33 306 6.4 17.7 0.00 0.08 0.08 45 1005.2
20260902192738 33 250 11.3 17.7 0.00 0.08 0.08 45 1005.2
20260902192237 33 285 4.8 8.0 0.00 0.08 0.08 45 1005.2
20260902191738 33 265 3.2 9.7 0.00 0.08 0.08 47 1005.2
20260902191238 33 219 3.2 12.9 0.00 0.08 0.08 46 1005.6
20260902190736 33 272 4.8 12.9 0.00 0.08 0.08 48 1005.2
20260902190236 33 246 11.3 12.9 0.00 0.08 0.08 48 1005.2
20260902185738 33 235 11.3 11.3 0.00 0.08 0.08 48 1005.6
20260902185238 32 246 4.8 11.3 0.00 0.08 0.08 50 1005.6
20260902184738 33 271 6.4 9.7 0.00 0.08 0.08 48 1005.6
20260902184239 33 266 6.4 14.5 0.00 0.08 0.08 46 1005.6
20260902183737 33 147 1.6 16.1 0.00 0.08 0.08 48 1005.9
20260902183237 33 259 12.9 16.1 0.00 0.08 0.08 46 1005.6
20260902182737 33 269 3.2 8.0 0.00 0.08 0.08 45 1005.6
20260902182239 33 13 4.8 11.3 0.00 0.08 0.08 47 1005.6
20260902181737 32 266 1.6 17.7 0.00 0.08 0.08 49 1005.9
20260902181237 33 262 8.0 17.7 0.00 0.08 0.08 48 1005.9
20260902180737 33 259 11.3 14.5 0.00 0.08 0.08 47 1005.9
20260902180239 33 258 4.8 17.7 0.00 0.08 0.08 47 1005.9
20260902175737 33 233 11.3 17.7 0.00 0.08 0.08 48 1006.3
20260902175238 33 266 9.7 14.5 0.00 0.08 0.08 49 1005.9
20260902174738 33 218 6.4 12.9 0.00 0.08 0.08 49 1006.3
20260902174237 32 206 11.3 14.5 0.00 0.08 0.08 50 1005.9
20260902173740 32 256 3.2 14.5 0.00 0.08 0.08 50 1006.3
20260902173238 32 243 9.7 12.9 0.00 0.08 0.08 52 1006.3
20260902172737 33 253 9.7 12.9 0.00 0.08 0.08 50 1006.3
20260902172238 33 232 8.0 17.7 0.00 0.08 0.08 50 1006.6
20260902171738 32 254 9.7 17.7 0.00 0.08 0.08 51 1006.3
20260902171238 32 256 8.0 16.1 0.00 0.08 0.08 52 1006.6
20260902170739 32 247 8.0 16.1 0.00 0.08 0.08 52 1006.3
20260902170238 32 247 8.0 14.5 0.00 0.08 0.08 52 1006.6
20260902165737 32 240 8.0 14.5 0.00 0.08 0.08 50 1006.6
20260902165238 32 196 8.0 17.7 0.00 0.08 0.08 52 1006.6
20260902164740 32 229 8.0 17.7 0.00 0.08 0.08 54 1006.6
20260902164238 32 239 12.9 12.9 0.00 0.08 0.08 54 1007.0
20260902163737 32 254 6.4 12.9 0.00 0.08 0.08 53 1007.0
20260902163239 32 251 6.4 12.9 0.00 0.08 0.08 54 1007.0
20260902162739 32 266 6.4 11.3 0.00 0.08 0.08 53 1007.0
20260902162237 32 255 4.8 14.5 0.00 0.08 0.08 54 1007.0
20260902161738 32 247 0.0 14.5 0.00 0.08 0.08 55 1007.3
20260902161237 31 241 8.0 14.5 0.00 0.08 0.08 56 1007.0
20260902160738 31 275 1.6 14.5 0.00 0.08 0.08 57 1007.0
20260902160239 31 245 9.7 14.5 0.00 0.08 0.08 57 1007.3
20260902155736 31 266 6.4 8.0 0.00 0.08 0.08 60 1007.3
20260902155238 31 300 3.2 12.9 0.00 0.08 0.08 62 1007.3
20260902154738 30 246 4.8 12.9 0.00 0.08 0.08 64 1007.3
20260902154238 30 258 11.3 12.9 0.00 0.08 0.08 65 1007.0
20260902153737 30 216 9.7 14.5 0.00 0.08 0.08 65 1007.3
20260902153238 30 263 8.0 14.5 0.00 0.08 0.08 65 1007.3
20260902152739 30 271 6.4 12.9 0.00 0.08 0.08 65 1007.3
20260902152241 30 249 4.8 9.7 0.00 0.08 0.08 65 1007.0
20260902151737 30 324 4.8 14.5 0.00 0.08 0.08 66 1007.3
20260902151241 30 300 6.4 14.5 0.00 0.08 0.08 66 1007.0
20260902150737 30 251 11.3 12.9 0.00 0.08 0.08 65 1007.3
20260902150240 30 260 6.4 12.9 0.00 0.08 0.08 66 1007.0
20260902145738 30 266 8.0 12.9 0.00 0.08 0.08 66 1007.0
20260902145236 29 265 1.6 11.3 0.00 0.08 0.08 69 1007.0
20260902144737 29 242 9.7 11.3 0.00 0.08 0.08 69 1007.0
20260902144237 28 224 8.0 14.5 0.00 0.08 0.08 69 1007.0
20260902143737 28 246 9.7 14.5 0.00 0.08 0.08 69 1007.0
20260902143236 28 237 4.8 16.1 0.00 0.08 0.08 72 1007.0
20260902142737 28 250 8.0 16.1 0.00 0.08 0.08 71 1007.0
20260902142237 28 245 6.4 12.9 0.00 0.08 0.08 72 1007.0
20260902141737 28 222 9.7 16.1 0.00 0.08 0.08 73 1007.0
20260902141238 27 215 8.0 16.1 0.00 0.08 0.08 74 1007.0
20260902140737 27 226 8.0 16.1 0.00 0.08 0.08 74 1007.0
20260902140237 27 235 9.7 16.1 0.00 0.08 0.08 75 1007.0
20260902135737 27 261 11.3 12.9 0.00 0.08 0.08 77 1007.0
20260902135237 27 223 11.3 16.1 0.00 0.08 0.08 77 1007.0
20260902134736 26 234 6.4 16.1 0.00 0.08 0.08 77 1007.0
20260902134236 26 239 9.7 17.7 0.00 0.08 0.08 77 1007.0
20260902133737 26 231 8.0 19.3 0.00 0.08 0.08 78 1006.6
20260902133237 26 234 11.3 19.3 0.00 0.08 0.08 77 1007.0
20260902132737 26 226 4.8 14.5 0.00 0.08 0.08 77 1007.0
20260902132237 26 238 3.2 17.7 0.00 0.08 0.08 78 1007.0
20260902131737 26 225 12.9 17.7 0.00 0.08 0.08 78 1007.0
20260902131237 26 229 11.3 14.5 0.00 0.08 0.08 79 1006.6
20260902130737 25 264 8.0 14.5 0.00 0.08 0.08 79 1007.0
20260902130237 25 208 11.3 12.9 0.00 0.08 0.08 80 1006.6
20260902125737 25 209 8.0 12.9 0.00 0.08 0.08 81 1007.0
20260902125237 25 218 8.0 17.7 0.00 0.08 0.08 81 1006.6
20260902124736 25 232 9.7 17.7 0.00 0.08 0.08 81 1007.0
20260902124237 25 257 6.4 11.3 0.00 0.08 0.08 81 1006.6
20260902123737 25 139 1.6 11.3 0.00 0.08 0.08 81 1006.3
20260902123236 25 178 8.0 9.7 0.00 0.08 0.08 81 1007.0
20260902122736 25 238 3.2 9.7 0.00 0.08 0.08 82 1007.0
20260902122236 24 191 6.4 12.9 0.00 0.08 0.08 82 1006.6
20260902121737 24 203 3.2 12.9 0.00 0.08 0.08 83 1006.6
20260902121237 24 188 4.8 12.9 0.00 0.08 0.08 83 1006.6
20260902120736 24 207 4.8 12.9 0.00 0.08 0.08 83 1006.6
20260902120236 24 209 6.4 11.3 0.00 0.08 0.08 82 1006.3
20260902115736 24 207 6.4 9.7 0.00 0.08 0.08 82 1006.6
20260902115237 24 180 3.2 9.7 0.00 0.08 0.08 83 1006.6
20260902114737 23 244 3.2 8.0 0.00 0.08 0.08 83 1006.3
20260902114237 23 232 3.2 9.7 0.00 0.08 0.08 83 1006.3
20260902113736 23 261 3.2 11.3 0.00 0.08 0.08 83 1006.3
20260902113236 23 209 6.4 14.5 0.00 0.08 0.08 84 1005.9
20260902112737 23 240 4.8 14.5 0.00 0.08 0.08 84 1006.3
20260902112237 23 159 4.8 9.7 0.00 0.08 0.08 84 1005.9
20260902111737 23 153 4.8 9.7 0.00 0.08 0.08 84 1005.9
20260902111236 23 191 9.7 11.3 0.00 0.08 0.08 84 1005.6
20260902110737 23 201 4.8 11.3 0.00 0.08 0.08 84 1005.9
20260902110236 23 182 4.8 14.5 0.00 0.08 0.08 84 1005.9
20260902105736 23 205 6.4 14.5 0.00 0.08 0.08 84 1005.6
20260902105237 23 160 4.8 9.7 0.00 0.08 0.08 85 1005.9
20260902104738 23 189 6.4 9.7 0.00 0.08 0.08 86 1005.6
20260902104236 23 203 1.6 8.0 0.00 0.08 0.08 86 1005.9
20260902103737 23 230 4.8 9.7 0.00 0.08 0.08 85 1005.6
20260902103236 23 181 6.4 9.7 0.00 0.08 0.08 85 1005.6
20260902102736 23 170 4.8 11.3 0.00 0.08 0.08 85 1005.6
20260902102236 23 213 4.8 11.3 0.00 0.08 0.08 84 1005.6
20260902101737 23 205 9.7 11.3 0.00 0.08 0.08 84 1005.6
20260902101237 23 178 6.4 9.7 0.00 0.08 0.08 84 1005.6
20260902100737 23 204 3.2 9.7 0.03 0.08 0.08 84 1005.6
20260902100236 23 87 3.2 9.7 0.03 0.08 0.08 84 1005.6
20260902095736 23 217 1.6 9.7 0.03 0.08 0.08 84 1005.6
20260902095236 23 196 4.8 14.5 0.03 0.08 0.08 84 1005.2
20260902094736 23 195 3.2 16.1 0.03 0.08 0.08 84 1005.2
20260902094236 23 182 11.3 16.1 0.00 0.08 0.08 83 1005.2
20260902093737 23 172 8.0 16.1 0.00 0.08 0.08 83 1005.2
20260902093236 23 183 11.3 14.5 0.00 0.08 0.08 83 1005.6
20260902092736 23 190 6.4 16.1 0.00 0.08 0.08 83 1005.6
20260902092236 23 208 9.7 16.1 0.00 0.08 0.08 82 1005.2
20260902091736 24 176 11.3 14.5 0.03 0.08 0.08 82 1005.2
20260902091236 23 174 4.8 14.5 0.03 0.08 0.08 82 1005.2
20260902090736 23 203 11.3 16.1 0.00 0.05 0.05 82 1005.2
20260902090236 24 190 8.0 16.1 0.00 0.05 0.05 82 1005.2
20260902085737 24 185 3.2 17.7 0.00 0.05 0.05 82 1005.2
20260902085236 24 224 6.4 17.7 0.00 0.05 0.05 82 1005.2
20260902084737 24 217 8.0 14.5 0.00 0.05 0.05 82 1005.2
20260902084236 24 181 9.7 14.5 0.03 0.05 0.05 81 1005.2
20260902083736 24 201 4.8 11.3 0.03 0.05 0.05 81 1005.2
20260902083236 24 189 6.4 12.9 0.03 0.05 0.05 81 1005.2
20260902082737 25 195 8.0 12.9 0.03 0.05 0.05 80 1005.2
20260902082237 25 188 8.0 11.3 0.00 0.05 0.05 80 1005.2
20260902081736 25 208 4.8 12.9 0.00 0.05 0.05 80 1005.2
20260902081236 25 179 8.0 14.5 0.03 0.05 0.05 80 1005.2
20260902080736 25 185 9.7 14.5 0.03 0.05 0.05 80 1004.9
20260902080235 25 220 6.4 14.5 0.03 0.05 0.05 79 1005.2
20260902075736 25 182 9.7 14.5 0.03 0.05 0.05 79 1004.9
20260902075237 25 189 6.4 17.7 0.03 0.05 0.05 79 1004.9
20260902074736 25 229 9.7 17.7 0.03 0.05 0.05 79 1005.2
20260902074237 25 188 9.7 14.5 0.03 0.05 0.05 79 1005.2